This is the latest recevied weather packets stored in our database for station/object KS5S. If no packets are shown the sender has not sent any weather packets the latest 10 day(s).
| Time | Temp. | Humidity | Pressure | Rain* | Wind** | Luminosity | Snow |
|---|---|---|---|---|---|---|---|
| 1777936661 | 26.67° C | 65% | 1004.8 hPa | 0 mm | - | 190 W/m² | - |
| 1777936357 | 26.67° C | 65% | 1004.7 hPa | 0 mm | - | 264 W/m² | - |
| 1777936053 | 26.67° C | 65% | 1005.2 hPa | 0 mm | - | 169 W/m² | - |
| 1777935752 | 27.22° C | 65% | 1004.9 hPa | 0 mm | - | 198 W/m² | - |
| 1777935450 | 27.22° C | 65% | 1004.9 hPa | 0 mm | - | 287 W/m² | - |
| 1777935146 | 27.22° C | 64% | 1004.9 hPa | 0 mm | - | 317 W/m² | - |
| 1777934843 | 27.22° C | 64% | 1005 hPa | 0 mm | - | 339 W/m² | - |
| 1777934540 | 27.22° C | 65% | 1005 hPa | 0 mm | - | 236 W/m² | - |
| 1777934236 | 27.22° C | 65% | 1004.7 hPa | 0 mm | - | 389 W/m² | - |
| 1777933932 | 27.22° C | 64% | 1005 hPa | 0 mm | - | 320 W/m² | - |
| 1777933630 | 27.78° C | 63% | 1005 hPa | 0 mm | - | 340 W/m² | - |
| 1777933326 | 27.22° C | 64% | 1005.2 hPa | 0 mm | - | 474 W/m² | - |
| 1777933024 | 27.22° C | 63% | 1005.4 hPa | 0 mm | - | 492 W/m² | - |
| 1777932721 | 27.22° C | 62% | 1005.2 hPa | 0 mm | - | 506 W/m² | - |
| 1777932417 | 27.22° C | 62% | 1005.3 hPa | 0 mm | - | 277 W/m² | - |
| 1777932115 | 27.22° C | 62% | 1005.2 hPa | 0 mm | - | 459 W/m² | - |
| 1777931811 | 27.22° C | 62% | 1005.4 hPa | 0 mm | - | 359 W/m² | - |
| 1777931508 | 27.22° C | 62% | 1005.2 hPa | 0 mm | - | 450 W/m² | - |
| 1777931204 | 27.22° C | 62% | 1005.5 hPa | 0 mm | - | 399 W/m² | - |
| 1777930901 | 27.22° C | 61% | 1005.5 hPa | 0 mm | - | 318 W/m² | - |
| 1777930597 | 27.78° C | 61% | 1005.6 hPa | 0 mm | - | 629 W/m² | - |
| 1777930294 | 27.22° C | 62% | 1005.8 hPa | 0 mm | - | 603 W/m² | - |
| 1777929990 | 27.22° C | 62% | 1005.7 hPa | 0 mm | - | 451 W/m² | - |
| 1777929687 | 27.78° C | 61% | 1005.9 hPa | 0 mm | - | 307 W/m² | - |
| 1777929385 | 27.78° C | 60% | 1005.8 hPa | 0 mm | - | 599 W/m² | - |
* Rain latest hour (hover to see other rain measurements)
** Current wind speed in m/s (hover to see current wind gust speed)